Temp
-13 -13 -13 -13 -13 -13 -13 -13 -13 -13 -13 -12 -13 -13 -13 -16 -18 -19 -19 -19 -19 -19 -19 -19 -18 -18 -18 -18 -17 -16 -13 -12 -12 -12 -12 -12 -12 -12 -11 -12 -12 -11 -12 -12
-13 -13 -13 -13 -14 -14 -13 -13 -13 -13 -13 -13 -14 -16 -17 -18 -18 -18 -18 -18 -19 -19 -19 -19 -18 -18 -18 -18 -18 -18 -18 -17 -14 -13 -13 -12 -12 -11 -11 -11 -11 -11 -11 -11
-13 -13 -14 -14 -13 -13 -13 -13 -13 -13 -13 -14 -16 -17 -17 -17 -18 -18 -18 -19 -19 -19 -19 -20 -19 -18 -18 -18 -18 -18 -18 -18 -18 -16 -14 -13 -12 -11 -11 -11 -12 -12 -12 -11
-14 -14 -14 -14 -13 -13 -13 -13 -13 -13 -14 -16 -17 -17 -18 -17 -18 -18 -18 -18 -19 -19 -19 -19 -18 -18 -18 -18 -18 -17 -17 -18 -18 -19 -17 -15 -13 -11 -11 -11 -12 -12 -11 -11
-14 -14 -14 -14 -14 -14 -14 -14 -14 -14 -16 -17 -18 -17 -18 -18 -18 -19 -19 -19 -19 -19 -19 -19 -18 -18 -17 -18 -18 -18 -18 -18 -18 -18 -19 -17 -15 -12 -12 -11 -12 -12 -12 -12
-14 -14 -14 -14 -14 -14 -14 -14 -15 -15 -17 -18 -18 -18 -19 -18 -18 -19 -19 -19 -18 -18 -19 -19 -19 -18 -18 -18 -18 -18 -18 -19 -19 -18 -19 -19 -17 -15 -12 -12 -12 -13 -13 -12
-14 -14 -15 -14 -14 -15 -15 -15 -15 -15 -17 -18 -18 -18 -19 -18 -19 -19 -19 -18 -18 -19 -19 -19 -19 -18 -18 -18 -18 -19 -19 -19 -19 -19 -18 -19 -19 -16 -14 -13 -13 -13 -13 -12
-14 -15 -15 -15 -15 -15 -15 -15 -16 -17 -18 -18 -18 -19 -19 -19 -19 -19 -20 -20 -19 -19 -20 -19 -18 -19 -19 -19 -19 -19 -19 -19 -19 -20 -19 -19 -20 -18 -16 -14 -14 -13 -14 -13
-15 -15 -15 -15 -15 -15 -15 -15 -16 -17 -18 -18 -18 -19 -19 -19 -20 -20 -20 -19 -19 -19 -19 -19 -20 -20 -19 -19 -19 -19 -20 -19 -19 -20 -19 -19 -19 -20 -16 -16 -15 -14 -14 -13
-15 -15 -15 -15 -15 -16 -15 -16 -16 -18 -18 -18 -18 -19 -19 -20 -20 -19 -19 -19 -20 -20 -19 -20 -20 -20 -20 -19 -19 -19 -20 -20 -20 -20 -19 -19 -20 -21 -18 -16 -16 -14 -14 -13
-15 -16 -15 -15 -15 -16 -16 -16 -17 -18 -19 -19 -18 -19 -19 -20 -20 -19 -20 -20 -20 -19 -20 -20 -20 -20 -20 -20 -19 -20 -20 -20 -20 -19 -20 -20 -21 -21 -21 -17 -16 -15 -14 -14
-16 -16 -16 -15 -16 -16 -17 -17 -17 -18 -18 -18 -19 -19 -20 -20 -20 -19 -19 -20 -19 -19 -20 -21 -20 -20 -21 -21 -21 -21 -21 -20 -20 -20 -21 -21 -22 -23 -22 -18 -16 -15 -15 -14
-16 -16 -16 -16 -15 -16 -17 -17 -18 -18 -19 -19 -20 -19 -20 -20 -19 -19 -19 -19 -19 -19 -21 -21 -21 -21 -21 -21 -21 -22 -22 -22 -21 -21 -22 -23 -24 -24 -22 -19 -17 -16 -15 -16
-16 -17 -16 -16 -16 -16 -17 -17 -18 -18 -19 -18 -19 -19 -19 -19 -19 -19 -19 -19 -20 -20 -20 -21 -21 -21 -22 -22 -22 -22 -22 -23 -22 -23 -24 -23 -24 -24 -21 -18 -16 -16 -16 -16
-16 -16 -16 -17 -17 -17 -17 -18 -19 -19 -19 -19 -19 -19 -19 -19 -19 -19 -19 -20 -20 -20 -20 -21 -22 -22 -22 -22 -22 -22 -23 -23 -23 -23 -23 -23 -23 -22 -20 -17 -16 -16 -16 -15
-16 -16 -16 -17 -17 -17 -17 -18 -19 -19 -19 -19 -19 -19 -19 -19 -19 -19 -19 -20 -19 -20 -20 -21 -22 -22 -22 -22 -22 -22 -23 -23 -23 -23 -23 -22 -21 -19 -18 -16 -16 -16 -16 -16
-16 -16 -16 -15 -16 -16 -17 -17 -18 -18 -19 -19 -19 -19 -19 -19 -19 -19 -19 -19 -20 -20 -19 -20 -20 -21 -21 -21 -22 -21 -21 -21 -21 -22 -20 -21 -19 -18 -17 -16 -16 -16 -16 -16
-16 -16 -16 -15 -16 -16 -17 -17 -17 -17 -18 -19 -19 -19 -19 -19 -19 -19 -19 -19 -20 -20 -19 -19 -20 -20 -20 -21 -21 -21 -20 -20 -21 -21 -20 -19 -17 -16 -16 -16 -16 -16 -16 -16
-17 -17 -16 -15 -15 -16 -17 -17 -17 -17 -18 -18 -19 -18 -19 -18 -19 -19 -19 -19 -19 -19 -20 -19 -20 -20 -20 -20 -20 -20 -20 -20 -20 -20 -19 -19 -18 -18 -17 -17 -17 -17 -17 -18
-17 -17 -16 -16 -16 -16 -17 -17 -17 -17 -18 -18 -18 -18 -18 -18 -19 -19 -19 -19 -19 -19 -19 -19 -19 -19 -19 -19 -19 -19 -19 -19 -19 -19 -19 -19 -19 -19 -18 -17 -18 -18 -18 -19
-17 -16 -16 -16 -16 -17 -17 -17 -17 -17 -17 -18 -18 -18 -18 -18 -18 -19 -19 -19 -19 -19 -19 -19 -19 -19 -19 -19 -19 -19 -19 -19 -19 -19 -19 -19 -19 -18 -18 -18 -18 -18 -18 -19
-17 -16 -16 -16 -16 -16 -16 -17 -17 -17 -17 -18 -18 -18 -18 -18 -18 -19 -19 -19 -19 -19 -19 -19 -19 -19 -19 -19 -19 -19 -19 -19 -19 -19 -19 -19 -19 -19 -19 -19 -19 -19 -19 -18
-16 -16 -16 -16 -17 -16 -16 -17 -16 -17 -17 -17 -18 -18 -18 -18 -18 -19 -19 -19 -19 -19 -20 -20 -19 -19 -19 -19 -19 -19 -19 -19 -19 -19 -19 -19 -19 -19 -19 -19 -19 -19 -19 -19
-17 -17 -16 -16 -17 -17 -16 -17 -16 -17 -17 -17 -18 -18 -18 -18 -19 -19 -19 -19 -19 -19 -20 -20 -20 -20 -20 -19 -20 -20 -19 -19 -20 -19 -19 -20 -20 -20 -19 -19 -19 -19 -19 -20
-16 -17 -16 -16 -17 -16 -16 -17 -17 -17 -17 -18 -18 -18 -18 -19 -19 -19 -19 -20 -20 -20 -20 -20 -20 -20 -20 -20 -20 -20 -20 -20 -20 -20 -20 -20 -20 -20 -20 -20 -20 -20 -20 -20
-17 -17 -16 -16 -16 -16 -17 -17 -17 -17 -17 -18 -18 -18 -18 -19 -19 -19 -20 -20 -20 -20 -20 -20 -20 -20 -20 -21 -20 -20 -20 -20 -20 -20 -20 -20 -20 -20 -20 -20 -20 -20 -20 -20
Height
5735 5733 5730 5726 5723 5719 5717 5714 5710 5705 5700 5694 5681 5670 5661 5649 5642 5639 5636 5632 5628 5624 5620 5616 5611 5607 5605 5602 5600 5600 5604 5609 5616 5623 5632 5641 5649 5659 5662 5668 5667 5675 5678 5685
5731 5727 5724 5721 5718 5714 5710 5706 5705 5697 5687 5680 5669 5658 5652 5646 5641 5635 5630 5625 5621 5616 5609 5603 5597 5593 5589 5586 5583 5582 5581 5582 5585 5593 5604 5615 5626 5639 5647 5651 5645 5656 5666 5674
5723 5722 5718 5715 5712 5708 5704 5701 5696 5689 5679 5665 5659 5656 5646 5641 5635 5630 5625 5621 5616 5609 5601 5592 5584 5578 5573 5569 5565 5562 5562 5563 5564 5565 5572 5585 5600 5616 5628 5633 5641 5646 5650 5655
5719 5716 5712 5709 5706 5704 5699 5694 5685 5676 5667 5659 5650 5647 5640 5634 5629 5624 5618 5610 5601 5593 5586 5577 5569 5563 5557 5551 5547 5544 5542 5541 5543 5545 5546 5555 5570 5589 5605 5616 5627 5636 5637 5643
5714 5710 5707 5705 5702 5699 5694 5686 5678 5668 5659 5653 5646 5641 5635 5628 5623 5615 5609 5603 5595 5586 5577 5566 5557 5549 5542 5535 5530 5526 5523 5522 5522 5523 5524 5529 5542 5561 5579 5595 5608 5621 5614 5628
5709 5705 5703 5699 5696 5693 5687 5679 5670 5661 5654 5649 5643 5635 5631 5622 5616 5609 5601 5593 5584 5574 5563 5553 5541 5530 5522 5514 5510 5506 5504 5503 5502 5502 5504 5507 5516 5533 5552 5572 5588 5601 5612 5617
5705 5701 5698 5694 5691 5686 5680 5671 5664 5657 5647 5643 5636 5631 5623 5614 5607 5599 5590 5581 5571 5561 5550 5537 5525 5513 5503 5493 5485 5484 5484 5484 5483 5482 5485 5488 5495 5508 5528 5549 5567 5584 5599 5607
5699 5697 5694 5689 5686 5680 5673 5664 5655 5644 5639 5638 5634 5626 5617 5608 5598 5589 5578 5571 5561 5548 5533 5516 5501 5491 5483 5476 5468 5463 5462 5461 5461 5462 5465 5469 5477 5488 5508 5528 5547 5566 5582 5594
5692 5692 5688 5684 5680 5675 5667 5660 5652 5642 5636 5630 5627 5619 5607 5598 5589 5584 5574 5559 5549 5534 5517 5499 5487 5477 5468 5458 5448 5442 5438 5436 5437 5440 5445 5452 5462 5470 5490 5510 5530 5550 5567 5586
5688 5686 5683 5679 5675 5670 5661 5654 5646 5638 5630 5623 5620 5615 5601 5594 5586 5576 5564 5554 5541 5526 5506 5491 5479 5466 5454 5443 5433 5423 5414 5411 5412 5419 5427 5437 5447 5457 5470 5492 5514 5535 5556 5573
5684 5681 5679 5675 5669 5664 5656 5649 5641 5634 5628 5622 5612 5612 5598 5590 5580 5570 5561 5549 5533 5512 5499 5486 5474 5461 5449 5436 5425 5412 5404 5400 5400 5406 5415 5424 5436 5446 5455 5474 5500 5521 5541 5558
5678 5676 5673 5670 5664 5659 5651 5644 5639 5630 5625 5619 5612 5608 5596 5588 5580 5570 5558 5545 5525 5508 5494 5482 5470 5458 5445 5433 5422 5411 5402 5397 5398 5402 5409 5418 5429 5437 5446 5462 5487 5509 5529 5546
5673 5671 5667 5665 5661 5654 5647 5641 5634 5627 5621 5618 5610 5606 5596 5590 5581 5567 5555 5538 5522 5506 5493 5480 5468 5457 5445 5434 5423 5415 5408 5403 5402 5404 5410 5417 5424 5431 5443 5458 5481 5502 5520 5533
5667 5666 5663 5661 5654 5650 5643 5637 5631 5624 5617 5612 5606 5597 5593 5584 5574 5565 5551 5538 5522 5505 5493 5480 5468 5457 5447 5437 5428 5420 5413 5409 5407 5409 5413 5419 5424 5431 5442 5461 5482 5501 5518 5532
5661 5661 5659 5657 5650 5645 5639 5633 5625 5616 5613 5609 5605 5595 5589 5582 5574 5561 5549 5538 5526 5507 5494 5483 5472 5461 5451 5442 5433 5427 5421 5416 5414 5416 5419 5423 5429 5436 5450 5470 5488 5505 5517 5528
5657 5654 5654 5653 5647 5643 5638 5630 5622 5615 5610 5605 5599 5596 5587 5580 5570 5561 5551 5541 5528 5512 5496 5486 5475 5465 5458 5449 5443 5436 5431 5426 5425 5424 5426 5430 5436 5447 5461 5479 5494 5507 5518 5527
5653 5649 5648 5647 5642 5639 5634 5626 5620 5615 5610 5604 5597 5591 5586 5580 5571 5564 5554 5543 5531 5517 5503 5492 5482 5474 5466 5458 5453 5447 5442 5438 5437 5437 5440 5440 5447 5460 5472 5485 5497 5507 5516 5524
5648 5645 5643 5642 5638 5636 5630 5622 5618 5614 5607 5602 5596 5590 5584 5578 5570 5562 5555 5546 5536 5526 5512 5501 5491 5483 5476 5469 5464 5458 5453 5452 5449 5446 5448 5453 5461 5470 5480 5490 5498 5506 5513 5519
5641 5640 5638 5636 5634 5633 5626 5619 5616 5612 5607 5600 5595 5590 5584 5577 5570 5563 5556 5549 5541 5532 5521 5511 5501 5494 5487 5481 5475 5470 5467 5465 5463 5462 5463 5466 5471 5478 5485 5492 5499 5505 5511 5517
5636 5635 5635 5632 5629 5627 5622 5616 5614 5609 5605 5599 5593 5589 5583 5577 5571 5565 5559 5552 5545 5538 5529 5521 5511 5503 5497 5492 5486 5481 5479 5477 5476 5476 5477 5479 5482 5486 5491 5496 5501 5506 5510 5515
5631 5630 5630 5627 5625 5623 5618 5613 5609 5607 5604 5597 5592 5587 5582 5577 5572 5566 5561 5555 5548 5542 5535 5527 5520 5514 5507 5500 5495 5492 5489 5488 5487 5486 5487 5489 5491 5494 5497 5500 5503 5508 5512 5515
5624 5624 5625 5623 5621 5616 5614 5610 5608 5605 5599 5595 5590 5586 5581 5576 5571 5567 5561 5555 5549 5543 5537 5531 5525 5520 5514 5508 5503 5499 5497 5496 5495 5494 5495 5496 5497 5498 5501 5503 5505 5509 5512 5514
5618 5619 5618 5619 5618 5611 5610 5606 5603 5601 5597 5593 5588 5583 5579 5574 5570 5565 5561 5556 5550 5545 5540 5534 5529 5525 5520 5515 5510 5506 5505 5502 5500 5500 5500 5500 5501 5502 5503 5505 5507 5510 5512 5513
5612 5612 5613 5612 5613 5606 5605 5602 5599 5597 5594 5589 5585 5580 5576 5572 5568 5564 5560 5555 5551 5546 5542 5538 5533 5529 5524 5520 5516 5512 5509 5506 5505 5504 5503 5503 5503 5503 5504 5505 5507 5508 5510 5512
5605 5608 5606 5605 5605 5601 5601 5598 5594 5592 5590 5586 5582 5578 5574 5570 5566 5562 5558 5554 5551 5547 5543 5539 5535 5531 5528 5524 5520 5517 5514 5511 5509 5508 5507 5507 5506 5507 5507 5508 5509 5510 5511 5513
5602 5600 5597 5598 5599 5597 5597 5593 5590 5589 5586 5582 5578 5575 5571 5566 5563 5559 5556 5553 5549 5546 5542 5539 5535 5532 5529 5526 5523 5520 5517 5514 5512 5511 5510 5509 5509 5509 5509 5509 5510 5510 5511 5512
Wind_Speed
21 24 27 27 27 27 30 34 39 44 46 53 61 70 67 46 29 26 26 28 30 33 38 44 49 49 49 52 57 66 82 86 86 84 83 80 75 67 67 64 67 69 63 62
24 27 28 28 26 28 32 36 41 48 54 60 63 40 36 30 29 29 30 34 39 44 48 49 50 51 53 55 56 56 58 65 77 85 88 87 83 76 71 75 53 55 67 64
27 28 27 27 29 32 37 40 44 50 58 59 41 36 36 35 32 33 33 33 37 45 48 44 48 48 49 51 54 57 57 59 58 70 83 92 91 84 78 75 70 64 68 60
25 25 26 27 30 33 38 43 49 54 60 42 38 39 35 34 34 34 36 43 46 51 53 50 48 50 50 50 50 49 47 49 56 58 68 89 94 92 85 80 75 57 67 69
24 24 26 29 31 36 40 45 50 55 48 38 37 38 30 33 35 37 38 42 46 50 53 54 55 53 56 56 55 56 54 49 48 54 60 72 96 95 91 84 78 72 48 58
23 25 26 28 33 38 41 45 49 50 40 33 36 39 35 38 38 36 40 43 48 52 56 61 58 57 56 59 58 51 49 46 48 50 55 57 82 99 95 89 85 83 61 54
23 26 27 28 33 38 43 46 49 51 39 34 39 39 41 39 36 39 43 48 51 54 59 63 60 56 53 54 56 56 53 51 52 50 51 60 54 92 98 92 87 79 61 47
25 25 26 29 35 38 44 48 50 46 35 34 37 43 43 40 40 44 51 49 51 58 65 68 60 47 46 47 47 53 57 58 56 56 52 54 55 70 97 94 87 82 84 61
24 24 27 29 36 38 43 48 49 42 31 36 39 44 46 44 46 44 46 53 57 64 66 58 42 42 51 54 52 53 61 65 62 59 54 50 54 54 90 94 88 81 79 59
24 24 28 32 35 37 43 47 49 35 30 39 42 41 47 43 43 48 52 54 57 66 55 43 46 47 45 41 40 41 42 45 47 50 48 46 50 49 73 91 86 82 77 59
26 23 29 33 37 35 40 45 48 35 28 37 47 40 46 41 45 51 51 54 59 57 46 46 38 40 41 42 42 36 28 25 28 35 37 40 46 45 62 84 85 82 78 72
26 26 29 33 36 37 38 43 45 34 28 35 43 41 44 39 44 48 51 54 62 51 48 40 38 39 40 35 29 25 20 15 19 23 29 34 40 42 57 75 82 79 74 79
27 26 28 31 37 38 39 43 43 34 26 30 39 41 36 34 42 49 50 56 61 45 45 40 38 36 36 34 27 22 20 9 4 13 20 27 35 39 50 66 75 75 72 72
27 24 26 31 38 41 42 45 42 35 25 32 38 41 31 38 45 47 48 54 58 46 42 41 37 34 35 34 32 21 16 9 4 13 19 18 20 31 45 59 65 67 62 63
25 24 25 28 36 39 41 41 39 32 25 32 35 37 31 38 46 48 48 49 53 53 39 40 38 31 31 33 30 22 15 8 4 10 12 14 19 25 36 47 53 57 54 49
25 25 28 27 32 36 39 39 35 23 27 33 36 29 32 39 44 45 45 44 49 55 37 38 36 29 29 34 31 26 20 19 14 11 11 17 22 25 32 37 43 44 43 42
25 25 28 28 32 35 37 39 20 21 26 31 33 33 32 38 41 43 41 42 47 53 42 39 34 30 35 34 29 20 24 16 18 17 12 21 23 22 26 29 30 32 32 34
23 23 26 29 32 34 34 29 21 22 28 29 31 32 33 39 41 42 36 39 44 46 49 40 33 37 31 33 33 21 28 24 22 24 22 22 21 19 21 22 23 24 28 27
21 23 26 27 31 31 30 23 22 23 24 28 29 28 30 34 38 37 34 35 38 42 44 44 35 31 37 28 22 29 31 28 23 24 27 23 18 17 18 19 20 21 20 20
22 24 23 28 31 31 30 26 23 23 23 25 27 25 30 33 33 31 32 34 35 37 38 38 40 33 32 32 27 17 27 24 19 20 21 18 17 16 15 20 24 23 23 19
25 24 21 26 29 27 29 24 23 25 26 26 24 24 29 30 30 27 29 31 31 31 32 33 35 33 29 28 24 21 14 16 16 16 13 9 11 9 9 11 17 20 22 21
26 25 19 24 27 31 29 20 22 24 24 26 26 26 28 27 26 25 29 30 29 29 27 28 29 30 31 32 30 30 17 13 10 10 6 7 4 7 7 8 15 18 18 18
25 24 24 23 23 31 28 21 18 24 24 26 26 27 26 26 23 25 25 25 25 26 26 26 26 25 24 25 26 26 22 20 10 7 6 5 3 5 4 3 5 5 6 6
24 25 24 27 19 31 26 24 20 24 25 24 24 23 22 22 23 23 20 20 20 20 21 22 22 23 22 21 20 19 19 18 16 15 13 11 8 5 2 1 3 6 6 4
25 21 25 26 22 29 27 26 22 23 26 23 22 22 21 22 21 19 18 17 17 17 16 16 16 17 16 15 16 15 15 14 13 11 9 7 6 8 7 5 4 4 4 3
21 21 28 24 21 25 24 23 19 22 25 21 20 21 20 19 20 20 19 18 16 15 14 13 13 14 13 12 10 9 9 10 10 10 10 9 9 8 7 7 6 4 2 2
Wind_Direction
308 312 315 317 318 317 319 321 322 320 321 320 317 314 310 316 325 322 314 306 299 297 296 293 292 285 280 276 269 266 259 255 250 247 245 246 245 242 245 247 257 252 238 239
315 319 319 318 319 321 322 324 321 322 328 323 324 325 328 328 328 327 325 325 323 318 311 298 289 283 280 276 273 272 267 260 253 245 242 242 242 240 238 239 249 240 246 238
319 320 321 322 323 325 323 321 324 331 329 330 322 326 327 327 324 320 320 312 308 310 310 304 294 290 284 278 276 269 266 262 264 252 238 237 238 237 235 239 240 247 240 244
319 321 322 323 323 320 322 325 331 334 334 330 324 324 317 318 318 313 315 320 319 318 315 314 301 291 288 285 281 277 270 263 257 258 247 232 231 233 232 232 234 239 257 245
322 324 322 322 320 322 325 331 335 338 333 323 321 321 321 313 318 315 316 316 317 314 311 316 309 298 288 284 279 274 272 269 259 251 254 240 227 227 228 228 228 221 240 247
319 321 318 319 322 323 329 334 339 337 327 320 328 331 332 317 314 312 312 316 317 316 318 315 309 301 295 284 272 268 265 266 265 261 248 250 232 223 222 223 224 222 231 244
319 316 315 319 322 328 333 338 339 336 329 330 332 335 335 323 319 318 320 324 323 319 319 317 312 297 297 293 280 264 262 268 265 267 254 243 246 225 219 219 220 220 215 226
317 312 313 319 325 330 335 339 341 333 325 325 330 338 333 333 332 333 333 327 323 324 320 319 311 303 302 295 289 269 265 266 265 261 258 239 241 229 218 217 217 217 217 227
314 311 314 322 326 332 337 339 340 332 323 322 336 342 335 341 340 337 334 335 329 326 326 323 321 312 304 298 291 281 269 265 261 255 255 237 235 230 217 217 214 215 216 221
309 310 316 321 327 334 338 338 341 335 325 327 334 346 335 341 341 343 340 333 331 328 335 333 326 324 322 319 308 296 289 269 257 247 241 231 228 234 215 215 212 212 208 206
306 310 316 319 325 333 340 339 340 332 324 326 329 352 336 343 345 343 339 337 332 341 341 336 338 339 335 332 328 316 297 275 247 233 231 218 222 230 214 210 210 209 208 213
304 307 314 318 323 333 340 339 339 328 325 329 330 347 337 344 346 343 342 340 346 346 344 341 342 345 345 337 336 344 336 293 256 230 205 208 221 225 215 205 206 208 207 213
303 308 311 317 321 335 339 336 337 331 317 326 331 341 335 338 345 346 342 349 350 348 350 344 345 349 352 355 346 343 348 331 230 203 208 214 217 219 210 204 202 206 209 213
299 304 311 320 323 332 337 331 336 334 316 326 333 337 343 347 348 345 349 350 352 351 349 0 356 360 359 4 359 359 356 343 254 195 186 194 207 203 200 200 200 206 210 216
295 300 304 322 323 332 334 331 334 336 322 333 337 335 344 344 349 350 352 353 353 358 356 352 2 8 14 11 9 11 17 36 118 165 184 197 187 176 188 193 199 205 211 217
290 296 300 322 324 330 331 334 340 333 325 338 334 342 342 344 352 355 352 355 359 4 5 7 5 21 31 32 32 35 39 56 62 93 120 141 140 154 175 187 200 207 213 222
285 292 302 319 324 329 332 343 342 332 330 336 335 339 346 349 353 356 358 2 6 8 16 16 26 30 25 24 21 47 44 51 55 95 79 116 121 146 170 187 199 209 217 223
284 289 304 316 320 327 335 340 330 337 331 339 337 339 342 350 350 357 2 8 12 13 19 24 26 27 36 42 31 64 51 42 57 86 101 109 126 149 170 184 199 204 216 223
277 290 302 313 314 325 335 334 320 329 336 336 336 338 342 349 352 355 3 8 13 16 22 22 28 34 29 30 42 56 57 57 63 78 91 101 119 138 162 171 179 190 204 217
272 285 297 308 312 327 335 329 316 324 338 335 335 336 341 348 351 354 359 4 9 15 18 23 24 23 28 29 40 58 63 63 71 77 88 97 95 113 153 178 181 187 205 198
265 276 291 303 310 324 331 324 311 320 329 336 339 341 341 344 347 349 354 355 360 5 11 16 25 30 32 38 37 46 50 42 57 93 98 101 100 126 150 188 199 200 213 234
256 274 287 298 312 316 325 317 305 315 326 330 333 333 337 340 342 345 348 352 1 5 8 11 15 19 27 31 40 50 42 40 66 76 70 85 104 127 147 153 185 211 239 249
259 267 279 298 310 305 322 310 299 308 323 330 330 331 332 334 336 339 345 353 359 8 16 21 20 20 20 28 31 36 43 52 59 61 94 88 83 163 163 168 169 226 263 284
257 261 282 288 292 295 314 309 286 301 314 321 324 326 327 330 332 335 345 351 355 3 11 17 23 26 29 28 30 37 34 42 44 50 62 65 66 72 77 151 233 223 230 204
249 272 279 278 282 288 304 311 291 298 314 319 322 325 328 328 331 332 337 346 352 356 3 10 13 15 20 27 35 44 49 51 50 50 49 53 51 48 67 102 95 115 81 28
257 263 272 277 276 284 298 308 303 301 311 315 322 322 323 326 327 329 332 337 341 341 340 340 341 346 355 5 18 22 34 56 65 68 72 74 76 73 73 76 88 102 128 176